• In Hungary
  • List of Countries
  • For 7 days
  • Water Temperature
  • Satellite Maps
  • Weather Map
  • News
  • Weather Widgets
  • user-avatar
    Login

    Hourly Weather Cerkove

    Today, 24 October, Wednesday

    Time Temperature Precipitation Wind Pressure Humidity
    00:00 +4°C° 0.6 mm 6 mps 731 mmHg 82%
    01:00 +5°C° 0.6 mm 6 mps 730 mmHg 83%
    02:00 +5°C° 0.6 mm 6 mps 729 mmHg 84%
    03:00 +5°C° 0.5 mm 6 mps 728 mmHg 84%
    04:00 +6°C° 0.5 mm 5 mps 728 mmHg 84%
    05:00 +6°C° 0.5 mm 5 mps 727 mmHg 84%
    06:00 +6°C° 0.3 mm 5 mps 727 mmHg 84%
    07:00 +5°C° 0.3 mm 5 mps 727 mmHg 84%
    08:00 +5°C° 0.3 mm 5 mps 727 mmHg 84%
    09:00 +5°C° 0.3 mm 5 mps 727 mmHg 82%
    10:00 +5°C° 0.3 mm 5 mps 727 mmHg 80%
    11:00 +5°C° 0.3 mm 5 mps 727 mmHg 78%
    12:00 +5°C° 0.4 mm 6 mps 727 mmHg 77%
    13:00 +5°C° 0.4 mm 6 mps 727 mmHg 75%
    14:00 +5°C° 0.4 mm 6 mps 727 mmHg 74%
    15:00 +5°C° 0.4 mm 6 mps 727 mmHg 76%
    16:00 +4°C° 0.4 mm 6 mps 727 mmHg 78%
    17:00 +5°C° 0.4 mm 5 mps 727 mmHg 80%
    18:00 +5°C° 0.3 mm 5 mps 728 mmHg 81%
    19:00 +5°C° 0.3 mm 5 mps 728 mmHg 83%
    20:00 +5°C° 0.3 mm 5 mps 729 mmHg 84%
    21:00 +4°C° 0.2 mm 6 mps 730 mmHg 84%
    22:00 +4°C° 0.2 mm 6 mps 730 mmHg 84%
    23:00 +4°C° 0.2 mm 6 mps 731 mmHg 83%

    Tomorrow, 25 October, Thursday

    Time Temperature Precipitation Wind Pressure Humidity
    00:00 +4°C° 0.3 mm 7 mps 732 mmHg 82%
    01:00 +4°C° 0.3 mm 7 mps 733 mmHg 81%
    02:00 +4°C° 0.3 mm 7 mps 734 mmHg 79%
    03:00 +3°C° 0.1 mm 7 mps 735 mmHg 79%
    04:00 +3°C° 0.1 mm 7 mps 735 mmHg 78%
    05:00 +2°C° 0.1 mm 7 mps 736 mmHg 78%
    06:00 +2°C° 0 mm 7 mps 736 mmHg 78%
    07:00 +2°C° 0 mm 7 mps 737 mmHg 78%
    08:00 +2°C° 0 mm 6 mps 738 mmHg 79%
    09:00 +2°C° 0 mm 6 mps 738 mmHg 77%
    10:00 +2°C° 0 mm 6 mps 738 mmHg 75%
    11:00 +3°C° 0 mm 5 mps 738 mmHg 73%
    12:00 +5°C° 0 mm 5 mps 738 mmHg 70%
    13:00 +5°C° 0 mm 5 mps 738 mmHg 67%
    14:00 +6°C° 0 mm 5 mps 738 mmHg 64%
    15:00 +5°C° 0.1 mm 4 mps 737 mmHg 67%
    16:00 +5°C° 0.1 mm 4 mps 737 mmHg 71%
    17:00 +4°C° 0.1 mm 3 mps 736 mmHg 75%
    18:00 +4°C° 0.5 mm 3 mps 736 mmHg 77%
    19:00 +4°C° 0.5 mm 3 mps 735 mmHg 80%
    20:00 +3°C° 0.5 mm 3 mps 734 mmHg 82%
    21:00 +4°C° 0.9 mm 3 mps 734 mmHg 84%
    22:00 +4°C° 0.9 mm 4 mps 734 mmHg 85%
    23:00 +4°C° 0.9 mm 4 mps 734 mmHg 86%

    Day after tomorrow, 26 October, Friday

    Time Temperature Precipitation Wind Pressure Humidity
    00:00 +4°C° 0.2 mm 4 mps 735 mmHg 86%
    01:00 +4°C° 0.2 mm 4 mps 735 mmHg 86%
    02:00 +5°C° 0.2 mm 4 mps 735 mmHg 86%
    03:00 +4°C° 0 mm 4 mps 736 mmHg 86%
    04:00 +4°C° 0 mm 4 mps 737 mmHg 86%
    05:00 +3°C° 0 mm 4 mps 737 mmHg 85%
    06:00 +3°C° 0 mm 3 mps 738 mmHg 86%
    07:00 +3°C° 0 mm 3 mps 739 mmHg 87%
    08:00 +3°C° 0 mm 3 mps 739 mmHg 88%
    09:00 +4°C° 0 mm 3 mps 740 mmHg 85%
    10:00 +5°C° 0 mm 4 mps 740 mmHg 83%
    11:00 +6°C° 0 mm 5 mps 741 mmHg 80%
    12:00 +6°C° 0 mm 5 mps 741 mmHg 78%
    13:00 +6°C° 0 mm 5 mps 741 mmHg 77%
    14:00 +7°C° 0 mm 5 mps 741 mmHg 75%
    15:00 +6°C° 0 mm 4 mps 741 mmHg 77%
    16:00 +6°C° 0 mm 4 mps 741 mmHg 79%
    17:00 +7°C° 0 mm 3 mps 742 mmHg 82%
    18:00 +5°C° 0 mm 3 mps 742 mmHg 83%
    19:00 +5°C° 0 mm 3 mps 742 mmHg 85%
    20:00 +5°C° 0 mm 3 mps 742 mmHg 87%
    21:00 +4°C° 0 mm 3 mps 742 mmHg 86%
    22:00 +4°C° 0 mm 4 mps 741 mmHg 85%
    23:00 +4°C° 0 mm 4 mps 741 mmHg 84%

    27 October, Saturday

    Time Temperature Precipitation Wind Pressure Humidity
    00:00 +5°C° 0 mm 5 mps 741 mmHg 83%
    01:00 +5°C° 0 mm 5 mps 740 mmHg 82%
    02:00 +5°C° 0 mm 6 mps 740 mmHg 82%
    03:00 +5°C° 0 mm 6 mps 739 mmHg 82%
    04:00 +7°C° 0 mm 6 mps 738 mmHg 82%
    05:00 +7°C° 0 mm 6 mps 738 mmHg 83%
    06:00 +8°C° 0.1 mm 7 mps 738 mmHg 81%
    07:00 +8°C° 0.1 mm 7 mps 738 mmHg 79%
    08:00 +8°C° 0.1 mm 7 mps 738 mmHg 78%
    09:00 +8°C° 0 mm 7 mps 738 mmHg 71%
    10:00 +9°C° 0 mm 8 mps 738 mmHg 65%
    11:00 +8°C° 0 mm 9 mps 739 mmHg 58%
    12:00 +7°C° 0 mm 8 mps 739 mmHg 60%
    13:00 +7°C° 0 mm 8 mps 740 mmHg 61%
    14:00 +6°C° 0 mm 7 mps 741 mmHg 63%
    15:00 +7°C° 0 mm 6 mps 741 mmHg 63%
    16:00 +7°C° 0 mm 5 mps 742 mmHg 63%
    17:00 +7°C° 0 mm 4 mps 743 mmHg 64%
    18:00 +6°C° 0 mm 4 mps 743 mmHg 65%
    19:00 +6°C° 0 mm 4 mps 744 mmHg 66%
    20:00 +5°C° 0 mm 4 mps 744 mmHg 67%
    21:00 +5°C° 0 mm 3 mps 745 mmHg 70%
    22:00 +4°C° 0 mm 3 mps 745 mmHg 72%
    23:00 +5°C° 0 mm 2 mps 746 mmHg 74%

    28 October, Sunday

    Time Temperature Precipitation Wind Pressure Humidity
    00:00 +4°C° 0 mm 2 mps 746 mmHg 76%
    01:00 +4°C° 0 mm 2 mps 747 mmHg 78%
    02:00 +4°C° 0 mm 2 mps 747 mmHg 80%
    03:00 +3°C° 0 mm 2 mps 748 mmHg 81%
    04:00 +3°C° 0 mm 2 mps 748 mmHg 82%
    05:00 +3°C° 0 mm 2 mps 749 mmHg 84%
    06:00 +3°C° 0 mm 2 mps 749 mmHg 84%
    07:00 +5°C° 0 mm 1 mps 750 mmHg 84%
    08:00 +5°C° 0 mm 1 mps 750 mmHg 84%
    09:00 +6°C° 0 mm 1 mps 751 mmHg 79%
    10:00 +7°C° 0 mm 1 mps 751 mmHg 74%
    11:00 +8°C° 0 mm 1 mps 752 mmHg 70%
    12:00 +8°C° 0 mm 1 mps 752 mmHg 67%
    13:00 +9°C° 0 mm 1 mps 752 mmHg 65%
    14:00 +9°C° 0 mm 1 mps 752 mmHg 63%
    15:00 +9°C° 0.1 mm 1 mps 752 mmHg 66%
    16:00 +8°C° 0.1 mm 1 mps 752 mmHg 70%
    17:00 +7°C° 0.1 mm 2 mps 752 mmHg 73%
    18:00 +6°C° 0.4 mm 2 mps 753 mmHg 76%
    19:00 +5°C° 0.4 mm 3 mps 753 mmHg 78%
    20:00 +5°C° 0.4 mm 3 mps 753 mmHg 81%
    21:00 +5°C° 1.2 mm 3 mps 753 mmHg 82%
    22:00 +5°C° 1.2 mm 4 mps 753 mmHg 84%
    23:00 +4°C° 1.2 mm 4 mps 753 mmHg 86%

    29 October, Monday

    Time Temperature Precipitation Wind Pressure Humidity
    00:00 +4°C° 1.4 mm 4 mps 752 mmHg 86%
    01:00 +3°C° 1.4 mm 5 mps 752 mmHg 87%
    02:00 +3°C° 1.4 mm 5 mps 752 mmHg 88%
    03:00 +3°C° 0.6 mm 5 mps 751 mmHg 88%
    04:00 +3°C° 0.6 mm 5 mps 751 mmHg 88%
    05:00 +3°C° 0.6 mm 6 mps 751 mmHg 88%
    06:00 +3°C° 0.1 mm 6 mps 750 mmHg 88%
    07:00 +3°C° 0.1 mm 6 mps 750 mmHg 88%
    08:00 +4°C° 0.1 mm 6 mps 750 mmHg 88%
    09:00 +5°C° 0 mm 5 mps 749 mmHg 87%
    10:00 +6°C° 0 mm 5 mps 749 mmHg 87%
    11:00 +6°C° 0 mm 5 mps 749 mmHg 86%
    12:00 +6°C° 0 mm 5 mps 748 mmHg 87%
    13:00 +7°C° 0 mm 5 mps 747 mmHg 87%
    14:00 +7°C° 0 mm 4 mps 747 mmHg 88%
    15:00 +7°C° 0 mm 4 mps 747 mmHg 89%
    16:00 +7°C° 0 mm 4 mps 746 mmHg 91%
    17:00 +7°C° 0 mm 4 mps 746 mmHg 92%
    18:00 +7°C° 0 mm 4 mps 746 mmHg 93%
    19:00 +7°C° 0 mm 4 mps 746 mmHg 94%
    20:00 +7°C° 0 mm 4 mps 745 mmHg 95%
    21:00 +7°C° 0 mm 4 mps 745 mmHg 95%
    22:00 +9°C° 0 mm 3 mps 745 mmHg 96%
    23:00 +9°C° 0 mm 3 mps 745 mmHg 96%

    30 October, Tuesday

    Time Temperature Precipitation Wind Pressure Humidity
    00:00 +9°C° 0 mm 3 mps 745 mmHg 97%
    01:00 +9°C° 0 mm 2 mps 745 mmHg 97%
    02:00 +9°C° 0 mm 2 mps 745 mmHg 97%
    03:00 +9°C° 0 mm 2 mps 745 mmHg 97%
    04:00 +9°C° 0 mm 2 mps 745 mmHg 97%
    05:00 +9°C° 0 mm 2 mps 745 mmHg 97%
    06:00 +9°C° 0 mm 2 mps 745 mmHg 96%
    07:00 +9°C° 0 mm 2 mps 746 mmHg 96%
    08:00 +10°C° 0 mm 1 mps 746 mmHg 95%
    09:00 +10°C° 0 mm 2 mps 746 mmHg 90%
    10:00 +12°C° 0 mm 2 mps 747 mmHg 84%
    11:00 +14°C° 0 mm 2 mps 747 mmHg 79%
    12:00 +13°C° 0 mm 3 mps 747 mmHg 77%
    13:00 +14°C° 0 mm 3 mps 747 mmHg 75%
    14:00 +16°C° 0 mm 3 mps 747 mmHg 73%
    15:00 +14°C° 0 mm 4 mps 747 mmHg 76%
    16:00 +13°C° 0 mm 4 mps 747 mmHg 80%
    17:00 +12°C° 0 mm 4 mps 747 mmHg 83%
    18:00 +12°C° 0 mm 4 mps 747 mmHg 84%
    19:00 +12°C° 0 mm 4 mps 747 mmHg 85%
    20:00 +12°C° 0 mm 5 mps 747 mmHg 86%
    21:00 +12°C° 0 mm 5 mps 747 mmHg 88%
    22:00 +12°C° 0 mm 5 mps 746 mmHg 89%
    23:00 +12°C° 0 mm 5 mps 746 mmHg 91%
    Show more